This demonstration page uses our WeatherBlox Daily Observations layout. Learn more.

Left ArrowRight Arrow

Hourly Observations for February 20, 2016

Temp ( °F °C ) Dew Point ( °F °C ) Humidity (%) Winds ( mph kmh ) Pressure ( in mb ) Visibility ( mi km ) Precip ( " mm )
12:58 am 00:58 Clear 44 6.7 29 -1.9 55 55 S 2 4 29.88 1012 10 16 0.00 0.00
1:58 am 01:58 Clear 41 4.8 29 -1.7 63 63 WNW 10 17 29.91 1013 10 16 0.00 0.00
2:58 am 02:58 Clear 44 6.5 29 -1.5 57 57 WSW 6 9 29.91 1013 10 16 0.00 0.00
3:58 am 03:58 Clear 37 2.8 28 -2.5 68 68 W 7 11 29.91 1013 10 16 0.00 0.00
4:58 am 04:58 Clear 42 5.4 28 -2.5 57 57 W 7 11 29.93 1014 10 16 0.00 0.00
5:58 am 05:58 Clear 36 2 27 -2.7 71 71 NW 1 2 29.96 1015 10 16 0.00 0.00
6:58 am 06:58 Clear 32 0.1 27 -3 80 80 Calm 29.98 1015 10 16 0.00 0.00
7:58 am 07:58 Sunny 32 0.2 27 -2.7 81 81 Calm 29.99 1016 10 16 0.00 0.00
8:58 am 08:58 Sunny 45 7.2 30 -0.9 57 57 NNE 6 9 29.99 1016 10 16 0.00 0.00
9:58 am 09:58 Sunny 50 10 31 -0.5 48 48 NNE 7 11 30.00 1016 10 16 0.00 0.00
10:58 am 10:58 Sunny 52 11.2 32 -0.1 46 46 NNW 13 20 30.01 1016 10 16 0.00 0.00
11:58 am 11:58 Sunny 55 12.6 34 0.9 45 45 N 12 19 30.01 1016 10 16 0.00 0.00
12:58 pm 12:58 Sunny 54 12.4 34 0.9 46 46 NNW 16 26 30.02 1017 10 16 0.00 0.00
1:58 pm 13:58 Sunny 54 12.1 36 2 50 50 N 10 17 30.00 1016 10 16 0.00 0.00
2:58 pm 14:58 Sunny 55 12.8 38 3.4 53 53 N 9 15 29.99 1016 10 16 0.00 0.00
3:58 pm 15:58 Sunny 55 13 39 3.7 54 54 NNW 8 13 29.99 1016 10 16 0.00 0.00
4:58 pm 16:58 Mostly Sunny 51 10.8 38 3.3 60 60 N 10 17 30.02 1017 10 16 0.00 0.00
5:58 pm 17:58 Sunny 47 8.4 37 2.7 68 68 N 9 15 30.06 1018 10 16 0.00 0.00
6:58 pm 18:58 Clear 46 8 37 3 71 71 N 8 13 30.06 1018 10 16 0.00 0.00
7:58 pm 19:58 Clear 46 8 37 3 71 71 N 8 13 30.06 1018 10 16 0.00 0.00
8:58 pm 20:58 Clear 46 8 37 3 71 71 N 8 13 30.05 1018 10 16 0.00 0.00
9:58 pm 21:58 Clear 46 8 37 3 71 71 N 8 13 30.05 1018 10 16 0.00 0.00
10:58 pm 22:58 Clear 46 8 37 3 71 71 N 8 13 30.05 1018 10 16 0.00 0.00
11:58 pm 23:58 Cloudy 39 4 34 0.9 80 80 N 7 11 30.12 1020 10 16 0.00 0.00

Powered by AerisWeather